Weather History for Lake Charles Regional, LA

Change the Weather History Date:

Friday, December 2, 2011

  Actual Average Record
Temperature  
Mean Temperature 56 °F 56 °F  
Max Temperature 71 °F 66 °F 82 °F (1912)
Min Temperature 40 °F 46 °F 23 °F (1896)
Degree Days  
Heating Degree Days 9 9  
Month to date heating degree days 20 18  
Since 1 July heating degree days 236 225  
Cooling Degree Days 0 1  
Month to date cooling degree days 0 2  
Year to date cooling degree days 3241 2791  
Growing Degree Days 6 (Base 50)    
Moisture  
Dew Point 41 °F    
Average Humidity 55    
Maximum Humidity 93    
Minimum Humidity 17    
Precipitation  
Precipitation 0.00 in 0.15 in 3.00 in (1897)
Month to date precipitation 0.00 0.30  
Year to date precipitation 33.94 53.11  
Snow  
Snow 0.00 in 0.00 in 0.00 in ()
Month to date snowfall 0.0 0.0  
Since 1 July snowfall 0.0 0.0  
Snow Depth 0.00 in    
Sea Level Pressure  
Sea Level Pressure 30.32 in    
Wind  
Wind Speed 8 mph (East)    
Max Wind Speed 16 mph    
Max Gust Speed 22 mph    
Visibility 7 miles    
Events      
T = Trace of Precipitation, MM = Missing Value Source: NWS Daily Summary

Daily Weather History Graph

Daily Weather History Graph

Search for Another Location

Airport:

Trip Planner

Search our weather history database for the weather conditions in past years. The results will help you decide how hot, cold, wet, or windy it might be!

Date:

Astronomy

Dec. 02, 2011 Rise Set
Actual Time 6:52 AM CST 5:12 PM CST
Civil Twilight 6:25 AM CST 5:38 PM CST
Nautical Twilight 5:56 AM CST 6:08 PM CST
Astronomical Twilight 5:27 AM CST 6:37 PM CST
Moon 12:25 PM CST (12/2) No Moon Set
Length of Visible Light 11h 12m
Length of Day
10h 20m
First Quarter, 53% of the Moon is Illuminated
Dec 2
First Quarter
Dec 10
Full
Dec 17
Last Quarter
Dec 24
New
Jan 1
First Quarter

Hourly Weather History & Observations

Time (CST) Temp. Windchill Dew Point Humidity Pressure Visibility Wind Dir Wind Speed Gust Speed Precip Events Conditions
12:13 AM 48.2 °F - 44.6 °F 87% 30.32 in 2.5 mi ESE 3.5 mph - N/A   Clear
12:53 AM 46.9 °F - 45.0 °F 93% 30.34 in 2.5 mi East 3.5 mph - N/A   Clear
1:17 AM 46.4 °F 43.5 °F 44.6 °F 93% 30.31 in 1.8 mi East 5.8 mph - N/A   Clear
1:53 AM 46.9 °F - 45.0 °F 93% 30.34 in 2.0 mi East 5.8 mph - N/A   Clear
2:44 AM 46.4 °F 43.5 °F 44.6 °F 93% 30.31 in 3.0 mi ENE 5.8 mph - N/A   Clear
2:53 AM 46.0 °F 43.1 °F 44.1 °F 93% 30.34 in 3.0 mi ENE 5.8 mph - N/A   Clear
3:11 AM 42.8 °F 39.3 °F 41.0 °F 93% 30.32 in 2.0 mi ENE 5.8 mph - N/A   Clear
3:18 AM 42.8 °F 40.1 °F 39.2 °F 87% 30.31 in 1.5 mi ENE 4.6 mph - N/A   Clear
3:41 AM 42.8 °F 41.1 °F 39.2 °F 87% 30.32 in 2.0 mi ENE 3.5 mph - N/A   Clear
3:53 AM 41.0 °F 37.1 °F 39.0 °F 93% 30.34 in 2.5 mi ENE 5.8 mph - N/A   Clear
4:02 AM 41.0 °F 37.1 °F 37.4 °F 87% 30.32 in 3.0 mi ENE 5.8 mph - N/A   Clear
4:53 AM 42.8 °F 39.3 °F 39.2 °F 87% 30.32 in 6.0 mi East 5.8 mph - N/A   Clear
5:53 AM 45.0 °F 40.6 °F 41.0 °F 86% 30.35 in 10.0 mi East 8.1 mph - N/A   Clear
6:53 AM 46.0 °F 41.9 °F 39.9 °F 79% 30.37 in 10.0 mi East 8.1 mph - N/A   Clear
7:53 AM 46.9 °F - 39.9 °F 77% 30.38 in 10.0 mi East 6.9 mph - N/A   Clear
8:53 AM 52.0 °F - 42.1 °F 69% 30.39 in 10.0 mi ESE 8.1 mph - N/A   Clear
9:53 AM 57.9 °F - 41.0 °F 53% 30.38 in 10.0 mi ESE 9.2 mph - N/A   Clear
10:53 AM 64.0 °F - 36.0 °F 35% 30.38 in 10.0 mi ESE 5.8 mph - N/A   Clear
11:53 AM 69.1 °F - 23.0 °F 18% 30.35 in 10.0 mi East 9.2 mph - N/A   Clear
12:53 PM 69.1 °F - 28.9 °F 22% 30.33 in 10.0 mi ESE 11.5 mph - N/A   Clear
1:53 PM 71.1 °F - 26.1 °F 19% 30.30 in 10.0 mi SE 13.8 mph - N/A   Clear
2:53 PM 71.1 °F - 30.0 °F 22% 30.29 in 10.0 mi ESE 13.8 mph - N/A   Clear
3:53 PM 69.1 °F - 35.1 °F 29% 30.29 in 10.0 mi ESE 11.5 mph - N/A   Clear
4:53 PM 64.0 °F - 41.0 °F 43% 30.28 in 10.0 mi ESE 6.9 mph - N/A   Clear
5:53 PM 59.0 °F - 44.1 °F 58% 30.29 in 10.0 mi East 5.8 mph - N/A   Clear
6:53 PM 54.0 °F - 43.0 °F 66% 30.31 in 9.0 mi East 4.6 mph - N/A   Clear
7:53 PM 55.0 °F - 46.9 °F 74% 30.31 in 10.0 mi East 5.8 mph - N/A   Clear
8:53 PM 55.0 °F - 48.9 °F 80% 30.30 in 10.0 mi ESE 9.2 mph - N/A   Clear
9:53 PM 55.0 °F - 48.9 °F 80% 30.30 in 10.0 mi ESE 5.8 mph - N/A   Clear
10:53 PM 54.0 °F - 50.0 °F 86% 30.29 in 10.0 mi East 6.9 mph - N/A   Clear
11:53 PM 54.0 °F - 50.0 °F 86% 30.27 in 10.0 mi East 4.6 mph - N/A   Clear